#timestamp,LO_Frequency,Hit,StdDev 
1604581215.8,286046999.7,N
1604581235.6,286047000.1,N
1604581255.5,286047002.8,N
1604581275.3,286047002.8,N
1604581295.1,286047002.6,N
1604581315.9,286047002.3,N
1604581335.7,286047002.5,N
1604581355.5,286047002.1,N
1604581375.4,286047002.3,N
1604581395.2,286047002.8,N
1604581415.1,286047002.6,N
1604581416.0,286047002.6,N
1604581435.8,286046999.7,N
1604581455.6,286047000.2,N
1604581475.5,286046999.8,N
1604581495.3,286047002.8,N
1604581515.2,286047002.1,N
1604581535.9,286047002.5,N
1604581555.7,286047001.6,N
1604581575.6,286047004.4,Y
1604581595.4,286047002.8,P
1604581615.2,286047000.5,N
1604581635.1,286046999.9,N
1604581636.0,286046999.9,N
1604581655.8,286047000.7,N
1604581675.7,286047001.0,N
1604581695.5,286046998.1,N
1604581715.3,286046998.4,N
1604581735.2,286046998.4,N
1604581755.0,286046998.5,N
1604581755.9,286046998.5,N
1604581775.8,286046998.7,N
1604581795.6,286046998.7,N
1604581815.4,286046998.5,N
1604581835.3,286046998.5,N
1604581855.1,286046998.7,N
1604581875.8,286046998.1,N
1604581895.7,286047001.0,N
1604581915.5,286047000.8,N
1604581935.4,286046998.8,N
1604581955.2,286047000.7,N
1604581975.0,286047001.2,N
1604581975.9,286047001.2,N
1604581995.8,286047001.1,N
1604582015.6,286047001.2,N
1604582035.5,286047000.7,N
1604582055.3,286046998.1,N
1604582075.1,286046998.6,N
1604582095.9,286046998.5,N
1604582115.7,286047001.2,N
1604582135.5,286046998.1,N
1604582155.4,286046998.1,N
1604582175.2,286046998.1,N
1604582195.1,286047001.1,N
1604582196.0,286047001.1,N
1604582215.8,286046998.3,N
1604582235.6,286046998.5,N
1604582255.5,286046998.7,N
1604582275.3,286046998.4,N
1604582295.1,286047001.1,N
1604582315.9,286047000.8,N
1604582335.7,286047002.4,N
1604582355.6,286047002.7,N
1604582375.4,286046999.8,N
1604582395.2,286047000.3,N
1604582415.1,286047000.3,N
1604582416.0,286047000.3,N
1604582435.8,286047000.0,N
1604582455.7,286047000.2,N
1604582475.5,286046999.9,N
1604582495.3,286047000.4,N
1604582515.2,286047000.1,N
1604582535.0,286047000.7,N
1604582535.9,286047000.7,N
1604582555.7,286047000.4,N
1604582575.6,286047002.7,N
1604582595.4,286046999.9,N
1604582615.3,286047002.2,N
1604582635.1,286046999.7,N
1604582655.8,286047002.8,N
1604582675.7,286046999.9,N
1604582695.5,286047000.4,N
1604582715.4,286047001.0,N
1604582735.2,286047002.8,N
1604582755.0,286047000.2,N
1604582755.9,286047000.2,N
1604582775.8,286046999.9,N
1604582795.6,286047000.1,N
1604582815.4,286047000.5,N
1604582835.3,286047001.0,N
1604582855.1,286047000.7,N
1604582875.9,286047000.8,N
1604582895.7,286046999.9,N
1604582915.5,286046999.7,N
1604582935.4,286047000.2,N
1604582955.2,286047000.3,N
1604582975.1,286047000.7,N
1604582976.0,286047000.7,N
1604582995.8,286047001.9,N
1604583015.6,286047002.7,N
1604583035.5,286047002.7,N
1604583055.3,286047002.8,N
1604583075.1,286047002.1,N
1604583095.9,286047001.8,N
1604583115.7,286047002.4,N
1604583135.6,286047002.3,N
1604583155.4,286047000.1,N
1604583175.2,286047002.7,N
1604583195.1,286047002.2,N
1604583196.0,286047002.2,N
1604583215.8,286047002.7,N
1604583235.6,286047002.6,N
1604583255.5,286047001.9,N
1604583275.3,286047001.8,N
1604583295.2,286047001.7,N
1604583315.9,286047001.6,N
1604583335.7,286047001.8,N
1604583355.6,286047001.8,N
1604583375.4,286047001.5,N
1604583395.3,286047001.7,N
1604583415.1,286047001.8,N
1604583416.0,286047001.8,N
1604583435.8,286047002.5,N
1604583455.7,286047004.3,Y
1604583475.5,286047000.4,P
1604583495.3,286047001.1,N
1604583515.2,286047000.6,N
1604583535.0,286047000.8,N
1604583535.9,286047000.8,N
1604583555.8,286047000.8,N
1604583575.6,286047000.4,N
1604583595.4,286047000.5,N
1604583615.3,286047000.5,N
1604583635.1,286047000.5,N
1604583655.9,286047000.9,N
1604583675.7,286047000.6,N
1604583695.5,286047000.5,N
1604583715.4,286047000.2,N
1604583735.2,286047002.8,Y
1604583755.0,286046999.9,P
1604583755.9,286046999.9,N
1604583775.8,286047000.3,N
1604583795.6,286047000.3,N
1604583815.5,286047000.3,N
1604583835.3,286047000.3,N
1604583855.1,286047000.4,N
1604583875.9,286047001.0,Y
1604583895.7,286047001.1,P
1604583915.6,286046998.4,P
1604583935.4,286046998.2,N
1604583955.2,286047000.7,N
1604583975.1,286047000.8,N
1604583976.0,286047000.8,N
1604583995.8,286046998.3,N
1604584015.6,286047000.9,N
1604584035.5,286047000.8,N
1604584055.3,286046998.1,N
1604584075.2,286047001.2,N
1604584095.9,286046998.6,N
1604584115.7,286047000.5,N
1604584135.6,286047000.7,N
1604584155.4,286047001.2,N
1604584175.2,286046998.3,N
1604584195.1,286046998.4,N
1604584196.0,286046998.4,N
1604584215.8,286046998.3,N
1604584235.7,286046998.7,N
1604584255.5,286047000.8,N
1604584275.3,286046998.7,N
1604584295.2,286046998.4,N
1604584315.0,286046998.7,N
1604584315.9,286046998.7,N
1604584335.8,286046998.8,N
1604584355.6,286046998.9,N
1604584375.4,286046998.5,N
1604584395.3,286046998.3,N
1604584415.1,286046998.2,N
1604584435.8,286046998.2,N
1604584455.7,286047001.0,N
1604584475.5,286047000.4,N
1604584495.4,286047000.5,N
1604584515.2,286047000.6,N
1604584535.0,286047001.0,N
1604584535.9,286047001.0,N
1604584555.8,286047000.7,N
1604584575.6,286046999.3,N
1604584595.4,286046998.5,N
1604584615.3,286046998.4,N
1604584635.1,286046998.8,N
1604584655.9,286046999.0,N
1604584675.7,286047001.1,N
1604584695.5,286046998.6,N
1604584715.4,286046998.3,N
1604584735.2,286046998.3,N
1604584755.1,286046998.6,N
1604584756.0,286046998.6,N
1604584775.8,286047001.1,N
1604584795.6,286047001.0,N
